Time,TemperatureF,DewpointF,PressureIn,WindDirection,WindDirectionDegrees,WindSpeedMPH,WindSpeedGustMPH,Humidity,HourlyPrecipIn,Conditions,Clouds,dailyrainin,SoftwareType,DateUTC
2013-11-24 00:12:00,67.0,65.0,30.06,WNW,303,0.0,2.0,93,0.00,,,0.00,,2013-11-24 05:12:00,
2013-11-24 00:22:00,67.0,65.0,30.05,WNW,298,0.0,6.0,93,0.00,,,0.00,,2013-11-24 05:22:00,
2013-11-24 00:43:00,67.0,65.0,30.05,NW,312,0.0,4.0,94,0.00,,,0.00,,2013-11-24 05:43:00,
2013-11-24 00:53:00,67.0,65.0,30.05,NW,309,0.0,3.0,94,0.00,,,0.00,,2013-11-24 05:53:00,
2013-11-24 01:12:00,67.0,65.0,30.04,NW,309,0.0,2.0,94,0.00,,,0.00,,2013-11-24 06:12:00,
2013-11-24 01:21:00,67.0,66.0,30.04,NW,309,0.0,2.0,95,0.00,,,0.00,,2013-11-24 06:21:00,
2013-11-24 01:42:00,67.0,66.0,30.04,West,280,0.0,2.0,95,0.00,,,0.00,,2013-11-24 06:42:00,
2013-11-24 01:52:00,67.0,66.0,30.04,WNW,285,0.0,2.0,95,0.00,,,0.00,,2013-11-24 06:52:00,
2013-11-24 02:11:00,67.0,66.0,30.04,NW,304,0.0,3.0,96,0.00,,,0.00,,2013-11-24 07:11:00,
2013-11-24 02:22:00,67.0,66.0,30.04,NW,319,0.0,1.0,96,0.00,,,0.00,,2013-11-24 07:22:00,
2013-11-24 02:42:00,67.0,66.0,30.05,NNE,20,0.0,2.0,96,0.00,,,0.00,,2013-11-24 07:42:00,
2013-11-24 02:52:00,67.0,66.0,30.04,SE,132,0.0,3.0,96,0.00,,,0.00,,2013-11-24 07:52:00,
2013-11-24 03:22:00,67.0,66.0,30.04,North,5,0.0,5.0,96,0.00,,,0.00,,2013-11-24 08:22:00,
2013-11-24 03:42:00,67.0,66.0,30.03,NNE,15,0.0,3.0,95,0.00,,,0.00,,2013-11-24 08:42:00,
2013-11-24 03:52:00,67.0,66.0,30.03,NNE,15,0.0,3.0,95,0.00,,,0.00,,2013-11-24 08:52:00,
2013-11-24 04:12:00,67.0,65.0,30.03,NNE,26,0.0,1.0,94,0.00,,,0.00,,2013-11-24 09:12:00,
2013-11-24 04:22:00,67.0,65.0,30.04,ENE,71,0.0,4.0,94,0.00,,,0.00,,2013-11-24 09:22:00,
2013-11-24 04:43:00,66.0,64.0,30.03,ENE,57,0.0,1.0,94,0.00,,,0.00,,2013-11-24 09:43:00,
2013-11-24 04:53:00,66.0,64.0,30.04,NE,36,0.0,1.0,94,0.00,,,0.00,,2013-11-24 09:53:00,
2013-11-24 05:13:00,66.0,64.0,30.04,NNW,338,0.0,4.0,94,0.00,,,0.00,,2013-11-24 10:13:00,
2013-11-24 05:23:00,66.0,64.0,30.04,NE,45,0.0,3.0,94,0.00,,,0.00,,2013-11-24 10:23:00,
2013-11-24 05:43:00,66.0,64.0,30.05,NW,304,0.0,6.0,94,0.00,,,0.00,,2013-11-24 10:43:00,
2013-11-24 05:53:00,66.0,64.0,30.06,West,261,0.0,4.0,93,0.00,,,0.00,,2013-11-24 10:53:00,
2013-11-24 06:22:00,66.0,64.0,30.06,ENE,59,0.0,4.0,92,0.00,,,0.00,,2013-11-24 11:22:00,
2013-11-24 06:43:00,66.0,64.0,30.07,NE,50,1.0,5.0,92,0.00,,,0.00,,2013-11-24 11:43:00,
2013-11-24 06:53:00,66.0,64.0,30.08,ENE,62,1.0,4.0,92,0.00,,,0.00,,2013-11-24 11:53:00,
2013-11-24 07:12:00,66.0,63.0,30.08,ENE,72,1.0,5.0,91,0.00,,,0.00,,2013-11-24 12:12:00,
2013-11-24 07:22:00,66.0,63.0,30.08,NE,56,2.0,8.0,91,0.00,,,0.00,,2013-11-24 12:22:00,
2013-11-24 07:42:00,65.0,62.0,30.09,NE,40,1.0,4.0,91,0.00,,,0.00,,2013-11-24 12:42:00,
2013-11-24 07:53:00,65.0,62.0,30.10,NW,306,0.0,4.0,91,0.00,,,0.00,,2013-11-24 12:53:00,
2013-11-24 08:12:00,64.0,61.0,30.11,NE,42,1.0,5.0,91,0.00,,,0.00,,2013-11-24 13:12:00,
2013-11-24 08:22:00,64.0,61.0,30.10,NNE,30,1.0,6.0,90,0.00,,,0.00,,2013-11-24 13:22:00,
2013-11-24 08:42:00,64.0,61.0,30.11,NW,317,0.0,5.0,90,0.00,,,0.00,,2013-11-24 13:42:00,
2013-11-24 08:52:00,64.0,61.0,30.11,East,88,0.0,9.0,90,0.00,,,0.00,,2013-11-24 13:52:00,
2013-11-24 09:11:00,65.0,61.0,30.12,East,84,1.0,6.0,88,0.00,,,0.00,,2013-11-24 14:11:00,
2013-11-24 09:22:00,65.0,61.0,30.12,NNE,30,2.0,9.0,86,0.00,,,0.00,,2013-11-24 14:22:00,
2013-11-24 09:42:00,65.0,61.0,30.13,NE,48,1.0,8.0,86,0.00,,,0.00,,2013-11-24 14:42:00,
2013-11-24 09:52:00,65.0,61.0,30.14,ENE,59,1.0,8.0,87,0.00,,,0.00,,2013-11-24 14:52:00,
2013-11-24 10:12:00,65.0,61.0,30.14,East,84,0.0,5.0,87,0.00,,,0.00,,2013-11-24 15:12:00,
2013-11-24 10:22:00,65.0,60.0,30.14,ENE,71,1.0,7.0,85,0.00,,,0.00,,2013-11-24 15:22:00,
2013-11-24 10:44:00,65.0,60.0,30.14,ENE,74,3.0,9.0,85,0.00,,,0.00,,2013-11-24 15:44:00,
2013-11-24 10:53:00,65.0,60.0,30.15,NE,52,2.0,7.0,84,0.00,,,0.00,,2013-11-24 15:53:00,
2013-11-24 11:13:00,65.0,60.0,30.15,NE,53,2.0,10.0,84,0.00,,,0.00,,2013-11-24 16:13:00,
2013-11-24 11:23:00,65.0,60.0,30.15,North,360,1.0,7.0,84,0.00,,,0.00,,2013-11-24 16:23:00,
2013-11-24 11:43:00,66.0,61.0,30.15,East,97,1.0,10.0,83,0.00,,,0.00,,2013-11-24 16:43:00,
2013-11-24 11:53:00,67.0,62.0,30.15,ESE,115,3.0,10.0,84,0.00,,,0.00,,2013-11-24 16:53:00,
2013-11-24 12:12:00,67.0,61.0,30.14,East,91,2.0,12.0,81,0.00,,,0.00,,2013-11-24 17:12:00,
2013-11-24 12:23:00,68.0,61.0,30.13,North,360,3.0,10.0,78,0.00,,,0.00,,2013-11-24 17:23:00,
2013-11-24 12:43:00,68.0,61.0,30.14,ENE,73,3.0,9.0,78,0.00,,,0.00,,2013-11-24 17:43:00,
2013-11-24 12:52:00,68.0,61.0,30.14,East,87,3.0,11.0,78,0.00,,,0.00,,2013-11-24 17:52:00,
2013-11-24 13:12:00,68.0,61.0,30.13,ENE,67,1.0,9.0,77,0.00,,,0.00,,2013-11-24 18:12:00,
2013-11-24 13:22:00,68.0,61.0,30.12,NE,55,1.0,10.0,77,0.00,,,0.00,,2013-11-24 18:22:00,
2013-11-24 13:42:00,69.0,61.0,30.12,ENE,76,1.0,10.0,75,0.00,,,0.00,,2013-11-24 18:42:00,
2013-11-24 13:52:00,68.0,60.0,30.12,ENE,57,1.0,8.0,76,0.00,,,0.00,,2013-11-24 18:52:00,
2013-11-24 14:12:00,69.0,61.0,30.12,ENE,75,2.0,8.0,75,0.00,,,0.00,,2013-11-24 19:12:00,
2013-11-24 14:22:00,69.0,61.0,30.12,North,355,3.0,8.0,75,0.00,,,0.00,,2013-11-24 19:22:00,
2013-11-24 14:42:00,68.0,60.0,30.11,NE,36,3.0,10.0,75,0.00,,,0.00,,2013-11-24 19:42:00,
2013-11-24 14:52:00,68.0,60.0,30.11,NNE,22,1.0,12.0,76,0.00,,,0.00,,2013-11-24 19:52:00,
2013-11-24 15:12:00,68.0,60.0,30.12,NE,36,2.0,11.0,75,0.00,,,0.00,,2013-11-24 20:12:00,
2013-11-24 15:22:00,68.0,60.0,30.12,North,360,3.0,11.0,75,0.00,,,0.00,,2013-11-24 20:22:00,
2013-11-24 15:42:00,68.0,59.0,30.13,East,92,3.0,11.0,74,0.00,,,0.00,,2013-11-24 20:42:00,
2013-11-24 15:52:00,68.0,59.0,30.13,NE,45,3.0,11.0,73,0.00,,,0.00,,2013-11-24 20:52:00,
2013-11-24 16:11:00,67.0,58.0,30.13,East,84,3.0,13.0,73,0.00,,,0.00,,2013-11-24 21:11:00,
2013-11-24 16:22:00,67.0,58.0,30.14,NE,55,3.0,9.0,73,0.00,,,0.00,,2013-11-24 21:22:00,
2013-11-24 16:43:00,66.0,57.0,30.14,NNW,344,3.0,15.0,73,0.00,,,0.00,,2013-11-24 21:43:00,
2013-11-24 16:54:00,66.0,57.0,30.14,NE,40,3.0,10.0,74,0.00,,,0.00,,2013-11-24 21:54:00,
2013-11-24 17:13:00,65.0,56.0,30.15,East,93,3.0,13.0,74,0.00,,,0.00,,2013-11-24 22:13:00,
2013-11-24 17:23:00,64.0,56.0,30.15,ESE,110,4.0,12.0,75,0.00,,,0.00,,2013-11-24 22:23:00,
2013-11-24 17:43:00,63.0,55.0,30.16,ENE,76,3.0,14.0,75,0.00,,,0.00,,2013-11-24 22:43:00,
2013-11-24 17:53:00,62.0,54.0,30.16,ENE,69,3.0,10.0,76,0.00,,,0.00,,2013-11-24 22:53:00,
2013-11-24 18:12:00,62.0,55.0,30.17,NE,49,4.0,10.0,77,0.00,,,0.00,,2013-11-24 23:12:00,
2013-11-24 18:22:00,61.0,54.0,30.17,ESE,117,3.0,9.0,78,0.00,,,0.00,,2013-11-24 23:22:00,
2013-11-24 18:42:00,61.0,54.0,30.17,ENE,78,6.0,13.0,77,0.00,,,0.00,,2013-11-24 23:42:00,
2013-11-24 18:52:00,60.0,53.0,30.18,East,101,3.0,10.0,77,0.00,,,0.00,,2013-11-24 23:52:00,
2013-11-24 19:12:00,60.0,53.0,30.19,ENE,64,3.0,7.0,78,0.00,,,0.00,,2013-11-25 00:12:00,
2013-11-24 19:22:00,60.0,53.0,30.19,ESE,109,2.0,7.0,79,0.00,,,0.00,,2013-11-25 00:22:00,
2013-11-24 19:42:00,59.0,52.0,30.19,NNE,12,1.0,6.0,79,0.00,,,0.00,,2013-11-25 00:42:00,
2013-11-24 19:52:00,59.0,52.0,30.20,East,90,2.0,14.0,78,0.00,,,0.00,,2013-11-25 00:52:00,
2013-11-24 20:11:00,59.0,53.0,30.21,ENE,75,0.0,3.0,80,0.00,,,0.00,,2013-11-25 01:11:00,
2013-11-24 20:22:00,58.0,52.0,30.21,ESE,106,3.0,9.0,79,0.00,,,0.00,,2013-11-25 01:22:00,
2013-11-24 20:42:00,58.0,52.0,30.22,ENE,78,2.0,10.0,79,0.00,,,0.00,,2013-11-25 01:42:00,
2013-11-24 20:52:00,58.0,51.0,30.22,ENE,72,4.0,9.0,78,0.00,,,0.00,,2013-11-25 01:52:00,
2013-11-24 21:12:00,58.0,51.0,30.22,NE,44,1.0,7.0,78,0.00,,,0.00,,2013-11-25 02:12:00,
2013-11-24 21:22:00,58.0,52.0,30.22,NE,40,1.0,10.0,79,0.00,,,0.00,,2013-11-25 02:22:00,
2013-11-24 21:42:00,58.0,51.0,30.22,East,83,2.0,10.0,78,0.00,,,0.00,,2013-11-25 02:42:00,
2013-11-24 21:52:00,58.0,51.0,30.22,East,82,2.0,11.0,78,0.00,,,0.00,,2013-11-25 02:52:00,
2013-11-24 22:11:00,57.0,51.0,30.22,ENE,76,2.0,11.0,80,0.00,,,0.00,,2013-11-25 03:11:00,
2013-11-24 22:22:00,57.0,51.0,30.22,NE,42,2.0,11.0,79,0.00,,,0.00,,2013-11-25 03:22:00,
2013-11-24 22:43:00,57.0,51.0,30.22,East,89,2.0,9.0,79,0.00,,,0.00,,2013-11-25 03:43:00,
2013-11-24 22:53:00,57.0,51.0,30.22,NNE,32,1.0,6.0,80,0.00,,,0.00,,2013-11-25 03:53:00,
2013-11-24 23:13:00,57.0,51.0,30.22,ENE,66,1.0,13.0,80,0.00,,,0.00,,2013-11-25 04:13:00,
2013-11-24 23:23:00,57.0,51.0,30.22,ENE,66,1.0,13.0,80,0.00,,,0.00,,2013-11-25 04:23:00,
2013-11-24 23:43:00,57.0,51.0,30.22,NE,56,3.0,6.0,80,0.00,,,0.00,,2013-11-25 04:43:00,
2013-11-24 23:53:00,57.0,51.0,30.21,NE,40,1.0,10.0,80,0.00,,,0.00,,2013-11-25 04:53:00,